THOR AGENA D R/B, 2825

Orbit data source: Space-Track

THOR AGENA D R/B, 2825 is space debris in LEO originally from a launch on Wed, 31 May 1967 UTC launched from the Air Force Western Test Range (AFWTR). Debris objects in space refer to the collection of defunct objects orbiting the Earth. Examples of debris include non-operational satellites, rocket bodies, and fragments generated from explosions, collisions, or faulty payload assembly.

Loading next visibility...
THOR AGENA D R/B details
Identifier
2825, 1967-053B
Orbit
LEO
Last TLE update17 hours ago
Origin
Flag of USUSAF SSD (US)
ManufacturerLMSC
MissionSpacecraft
Bus & MotorAGENA D, Unknown motor
Mass600 kg wet, 600 kg dry
Launch date (UTC)
1967-05-31 (58 years ago)
Launch vehicleUnknown
Launch site
Air Force Western Test Range (AFWTR)
Object type
Payload
Rocket body
Debris
Shape & HBRCyl + 1 Nozzle, 6.3 m
Radar Cross Section8.306 m², Large (>1 m²)

Expand to show TLE details & history

TLE from 17 hours ago
0 THOR AGENA D R/B
1 02825U 67053B   24355.88952854  .00000185  00000-0  16917-3 0  9997
2 02825  69.9701 159.7939 0006701 184.1263 175.9790 13.97558462 16187
Epoch: 2024-12-20T21:20Z
Definitive object data (Epoch: 2024-12-20T21:20:55.265Z)
Latitude0.00004°
Longitude109.61508°
Altitude909.441 km
Speed7.395 km/s
True Right ascension10h 39m 10s
True Declination0° 00' 00"
Sunlit
Object was in daylight at TLE epoch
Visualization TLE readout
Latitude-32.46291°
Longitude94.75563°
Altitude917.692 km
Speed7.39 km/s
Apparent Right ascension06h 20m 11s
Apparent Declination-56° 18' 58"
Sunlit
Object is in daylight
Visualization observer readout
Local Sidereal Time13:23:43
Azimuth224.606° SW
Elevation-40.568°
Doppler factor1
Orbital elements
Apogee altitude905.184 km
Perigee altitude895.429 km
Semi-major axis7,278.444 km
Eccentricity0.0006701
Inclination69.9701°
RAAN159.7939°
Arg. of periapsis184.1263°
True anomaly175.98438°
Mean anomaly175.979°
Eccentric anomaly175.98169°
Mean motion3.49531 °/min
BSTAR0.00016917
Orbital period103 mins
Loading maneuver chart data...
Loading historical data...
Loading historical data...
Loading historical data...
Loading historical data...
Loading historical data...
Loading historical data...
Loading historical data...

THOR AGENA D R/B Visibility forecast

Observer location: undefined°, undefined

Span
Click to sort rows by Start time (UTC) header in descending order
Start Az.
Max El. time (UTC)
Max El. Az.
Max El.
End time (UTC)
End Az.
4 mins2024-12-21 20:14:36.689Z28.2° NE2024-12-21 20:15:36.689Z38.67° NE12.497°2024-12-21 20:18:36.689Z69.502° E
9 mins2024-12-21 21:58:36.689Z342.59° N2024-12-21 22:02:36.689Z57.489° ENE43.548°2024-12-21 22:07:36.689Z147.385° SSE
5 mins2024-12-21 23:45:36.689Z282.155° WNW2024-12-21 23:47:36.689Z259.35° W15.254°2024-12-21 23:50:36.689Z227.649° WSW
7 mins2024-12-22 11:16:36.689Z139.49° SSE2024-12-22 11:19:36.689Z99.395° ESE22.254°2024-12-22 11:23:36.689Z53.762° ENE
9 mins2024-12-22 13:00:36.689Z231.828° WSW2024-12-22 13:04:36.689Z301.719° NW37.37°2024-12-22 13:09:36.689Z12.338° NNE
|